Regional Weather Roundup
Issued by NWS

Home | Current Version | Previous Version | Text Only | Print | Product List | Glossary Off
Versions: 1 2 3 4 5 6 7 8 9 10 11 12 13 14 15 16 17 18 19 20 21 22 23 24 25 26 27 28 29 30 31 32 33 34 35 36 37 38 39 40 41 42 43 44 45 46 47 48

000
ASUS45 KCYS 040510
RWRWY

WYOMING REGIONAL WEATHER ROUNDUP
NATIONAL WEATHER SERVICE CHEYENNE WY
1000 PM MST TUE MAR 03 2015

NOTE:  "FAIR" INDICATES FEW OR NO CLOUDS BELOW 12,000 FEET
WITH NO SIGNIFICANT WEATHER AND/OR OBSTRUCTIONS TO VISIBILITY.

WYZ001-040600-
YELLOWSTONE NATIONAL PARK

CITY           SKY/WX    TMP DP  RH WIND       PRES   REMARKS
LK YELLOWSTONE   N/A     -6 -12  75 NW3       29.88R
W YELLOWSTONE  NOT AVBL

$$
WYZ002>013-054>058-071-098>099-040600-
NORTHERN WYOMING

CITY           SKY/WX    TMP DP  RH WIND       PRES   REMARKS
JACKSON        CLOUDY    12   3  67 CALM      29.90R
CODY           FAIR       3   0  85 CALM      30.01R
GREYBULL       FAIR       9   0  67 NW5       30.08R WCI   1
WORLAND        FAIR       5  -1  76 S7        30.06R WCI  -7
SHERIDAN       FAIR      -1 -12  59 W9        30.05R WCI -16
BUFFALO        FAIR       2  -7  66 CALM      29.98R
GILLETTE       FAIR       2  -5  72 W13       30.00R WCI -15
HULETT         FAIR       3  -4  72 SW9       29.99R WCI -11
NEWCASTLE      FAIR       3  -2  78 N7        30.03R WCI  -9

$$
WYZ014>020-022>026-101>103-040600-
CENTRAL WYOMING

CITY           SKY/WX    TMP DP  RH WIND       PRES   REMARKS
BIG PINEY      FAIR      12   0  58 N14       29.85R WCI  -3
PINEDALE       FAIR       0  -8  71 W8        29.86R WCI -15
DUBOIS         FAIR      -6  -8  92 CALM      29.84R
LANDER         CLOUDY     8   0  69 W6        29.97R WCI  -2
RIVERTON       CLOUDY     5  -2  72 MISG      29.99R
CASPER         FAIR      -6 -11  79 SW3       29.98R
DOUGLAS        FAIR      -4  -8  83 CALM      30.01R

$$
WYZ021-027>030-104>119-040600-
SOUTHERN WYOMING

CITY           SKY/WX    TMP DP  RH WIND       PRES   REMARKS
EVANSTON       FAIR      10   6  84 W7        29.90R WCI  -1
FORT BRIDGER   FAIR      16  11  81 W15       29.90S WCI   1
ROCK SPRINGS   FAIR       7   0  73 W9        29.86R WCI  -7
DIXON          FAIR       8   4  87 CALM      29.88R
RAWLINS        CLOUDY     4  -1  80 NE7       29.85R WCI  -8
SARATOGA       LGT SNOW   9   7  92 CALM      29.83R
LARAMIE        FLURRIES   4   1  88 NW7       29.80R WCI  -8
CHEYENNE       LGT SNOW   8   3  80 N7        29.89R WCI  -3
TORRINGTON     CLOUDY     9   5  84 N7        30.04R WCI  -2
PINE BLUFFS    LGT SNOW  12   9  85 N7        29.96R WCI   2

$$



USA.gov is the U.S. government's official web portal to all federal, state and local government web resources and services.